Weather Roundup
Issued by NWS Corpus Christi, TX

Home | Current Version | Previous Version | Text Only | Print | Product List | Glossary On
Versions: 1 2 3 4 5 6 7 8 9 10 11 12 13 14 15 16 17 18 19 20 21 22 23 24 25 26 27 28 29 30 31 32 33 34 35 36 37 38 39 40 41 42 43 44 45 46 47 48 49 50
000
ASUS44 KCRP 020610
HRRCRP

SOUTH TEXAS REGIONAL WEATHER ROUNDUP
NATIONAL WEATHER SERVICE CORPUS CHRISTI TX
100 AM CDT SUN AUG 02 2015


TXZ229>244-020700-
...CORPUS CHRISTI AREA OBSERVATIONS...

CITY           SKY/WX    TMP DP  RH WIND       PRES   REMARKS
CORPUS CHRISTI MOCLDY    78  74  87 S6        29.91F
NAS CORPUS CHR CLEAR     80  77  90 SE7       29.90F
ROCKPORT       CLEAR     84  76  76 SE8       29.90F HX  93
KINGSVILLE NAS CLEAR     77  76  96 S5        29.92S
ALICE          CLEAR     76  73  91 S3        29.92S
FALFURRIAS     CLEAR     76  70  81 CALM      29.92S
$$

...VICTORIA AREA OBSERVATIONS...

CITY           SKY/WX    TMP DP  RH WIND       PRES   REMARKS
VICTORIA       CLEAR     77  74  90 CALM      29.92F
BEEVILLE       FAIR      77  74  88 CALM      29.93S
PLEASANTON     CLEAR     78  65  64 CALM      29.94S
SAN ANTONIO    CLEAR     82  64  54 S8        29.96S
$$

...LAREDO AREA OBSERVATIONS...

CITY           SKY/WX    TMP DP  RH WIND       PRES   REMARKS
LAREDO         CLEAR     84  64  50 SE8       29.95S
COTULLA        CLEAR     82  69  64 SE6       29.93S
DEL RIO        CLEAR     81  70  69 E6        29.93S
MCALLEN        CLEAR     80  71  74 S3        29.92F
HEBBRONVILLE     N/A     77  65  66 S5        29.94F
$$

...OTHER TEXAS OBSERVATIONS...

CITY           SKY/WX    TMP DP  RH WIND       PRES   REMARKS
BROWNSVILLE    MOCLDY    78  73  84 S6        29.91F
HOUSTON        PTCLDY    75  68  78 CALM      29.92R
COL. STATION   CLEAR     81  62  52 E3        29.93S
AUSTIN         CLEAR     72  66  81 CALM      29.94S
WACO           CLOUDY    82  62  50 E5        29.95S
FORT WORTH     MOCLDY    85  59  41 SE7       29.95S
WICHITA FALLS  LGT RAIN  76  71  85 E5        29.98S
LUBBOCK        CLOUDY    75  67  76 S5        30.07R
EL PASO        PTCLDY    83  56  39 S12       30.04R
$$

...MARINE OBSERVATIONS...

STATION/POSITION TIME  SKY/WX   TEMP    WIND        PRES    VSBY  WAVE   SWELL
                                AIR SEA DIR/SP/G                  HT/PER HT/PER
                 (UTC)          (F)     (DEG/KT/KT) (MB)    (MI)  (FT/S) (FT/S)
PORT ARANSAS     0600            83 85  120/  6/  6 1013.3F
BUOY 90 E PORT A 0550            86 86  110/ 10/ 12 1012.3F         2/ 5   2/ 5
BUOY 45 SE BAFFI 0550            85 85  110/  8/  8 1012.3F         1/ 4
BUOY 200 E PT IS 0550            84 85  210/ 10/ 12 1013.3F         1/ 4
BUOY 15 E GALVES 0550            87 86  170/  2/  4 1012.5R         1/ 4
$$


USA.gov is the U.S. government's official web portal to all federal, state and local government web resources and services.